Date String (YYYY-MM-DD hh:mm:ss) UTC,Instrument flags,Ambient pressure (hPa),Sample flow (lpm),Bypass flow (lpm),Sample temperature (°C),Ambient temperature (°C),ASC tube jacket temperature (°C),LED temperature (°C),Box temperature (°C),Sample RH (%),Span deviation,Mass concentration (μg/m³),Mass concentration (μg/m³),Mass concentration (μg/m³)
DateTimeUTC,F1_M11,P_M11,Q1_M11,Q2_M11,T1_M11,T2_M11,T3_M11,T4_M11,T5_M11,U1_M11,ZSPAN_M11,X0_M11,X2_M11,X1_M11
2023-01-12 11:00:00,,0832.0,5.00,0.00,22.2,20.4,00.0,31.1,23.7,17.6,-002.1,0019.45,0013.00,0012.76
2023-01-12 11:01:00,,0832.1,5.00,0.00,22.1,20.2,00.0,31.1,23.7,17.6,-002.1,0019.60,0013.02,0012.78
2023-01-12 11:02:00,,0832.1,4.99,0.00,22.1,20.1,00.0,31.1,23.6,17.7,-002.1,0019.68,0013.05,0012.80
2023-01-12 11:03:00,,0832.0,5.00,0.00,22.0,20.0,00.0,31.1,23.5,17.8,-001.9,0019.62,0013.03,0012.79
2023-01-12 11:04:00,,0832.0,5.01,0.00,22.0,19.9,00.0,31.1,23.4,17.8,-001.8,0019.56,0013.01,0012.79
2023-01-12 11:05:00,,0832.0,5.00,0.00,21.9,19.8,00.0,31.0,23.4,17.9,-001.7,0019.56,0013.01,0012.77
2023-01-12 11:06:00,,0832.0,5.00,0.00,21.9,19.8,00.0,31.0,23.4,17.9,-001.5,0019.52,0013.00,0012.77
2023-01-12 11:07:00,,0832.1,4.99,0.00,21.8,19.7,00.0,31.0,23.3,17.9,-001.6,0019.40,0012.95,0012.73
2023-01-12 11:08:00,,0832.1,4.99,0.00,21.8,19.6,00.0,30.9,23.2,18.0,-001.7,0019.42,0012.94,0012.71
2023-01-12 11:09:00,,0832.1,5.00,0.00,21.8,19.9,00.0,30.9,23.3,18.0,-001.7,0019.33,0012.90,0012.69
2023-01-12 11:10:00,,0832.0,5.01,0.00,21.8,21.1,00.0,30.8,23.6,17.8,-001.7,0019.30,0012.87,0012.65
2023-01-12 11:11:00,,0832.1,5.00,0.00,22.0,22.3,00.0,30.8,23.9,17.7,-001.7,0019.28,0012.83,0012.61
2023-01-12 11:12:00,,0832.1,4.99,0.00,22.1,22.4,00.0,30.8,24.0,17.6,-001.7,0019.08,0012.81,0012.59
2023-01-12 11:13:00,,0832.1,5.00,0.00,22.1,21.7,00.0,30.9,23.9,17.6,-001.7,0019.09,0012.82,0012.59
2023-01-12 11:14:00,,0832.1,5.00,0.00,22.0,21.1,00.0,30.9,23.7,17.6,-001.8,0019.22,0012.86,0012.61
2023-01-12 11:15:00,,0832.1,5.02,0.00,22.0,20.8,00.0,30.9,23.6,17.7,-001.8,0019.32,0012.90,0012.62
2023-01-12 11:16:00,,0832.1,4.99,0.00,22.0,20.5,00.0,30.9,23.5,17.7,-001.8,0019.33,0012.92,0012.65
2023-01-12 11:17:00,,0832.1,5.01,0.00,21.9,20.2,00.0,30.9,23.5,17.7,-001.9,0019.31,0012.91,0012.65
2023-01-12 11:18:00,,0832.1,5.00,0.00,21.9,20.1,00.0,30.9,23.4,17.7,-001.8,0019.37,0012.96,0012.69
2023-01-12 11:19:00,,0832.0,5.00,0.00,21.8,19.9,00.0,30.9,23.4,17.7,-001.7,0019.57,0013.07,0012.76
2023-01-12 11:20:00,,0832.0,5.00,0.00,21.8,19.8,00.0,30.8,23.3,17.7,-001.7,0019.76,0013.16,0012.83
2023-01-12 11:21:00,,0832.1,4.99,0.00,21.8,19.8,00.0,30.8,23.3,17.8,-001.6,0020.01,0013.28,0012.93
2023-01-12 11:22:00,,0832.1,5.00,0.00,21.7,19.8,00.0,30.8,23.3,17.9,-001.6,0020.11,0013.37,0013.04
2023-01-12 11:23:00,,0832.1,5.01,0.00,21.7,19.9,00.0,30.8,23.3,17.9,-001.5,0020.29,0013.50,0013.14
2023-01-12 11:24:00,,0832.1,5.00,0.00,21.7,20.0,00.0,30.8,23.4,17.9,-001.5,0020.56,0013.65,0013.27
2023-01-12 11:25:00,,0832.1,5.00,0.00,21.7,20.0,00.0,30.7,23.4,17.9,-001.4,0020.62,0013.72,0013.36
2023-01-12 11:26:00,,0832.1,5.01,0.00,21.7,20.0,00.0,30.7,23.4,17.9,-001.4,0021.04,0013.79,0013.44
2023-01-12 11:27:00,,0832.1,4.99,0.00,21.7,20.1,00.0,30.7,23.4,17.9,-001.4,0021.47,0013.88,0013.53
2023-01-12 11:28:00,,0832.1,5.01,0.00,21.8,20.7,00.0,30.7,23.5,17.8,-001.3,0021.75,0014.04,0013.68
2023-01-12 11:29:00,,0832.1,5.00,0.00,21.9,21.8,00.0,30.7,23.8,17.7,-001.4,0021.98,0014.15,0013.80
2023-01-12 11:30:00,,0832.1,5.00,0.00,22.0,22.7,00.0,30.7,24.0,17.6,-001.5,0022.07,0014.19,0013.87
2023-01-12 11:31:00,,0832.1,5.00,0.00,22.1,22.5,00.0,30.8,24.1,17.5,-001.4,0022.75,0014.26,0013.94
2023-01-12 11:32:00,,0832.1,5.00,0.00,22.1,22.0,00.0,30.8,24.0,17.4,-001.2,0022.99,0014.35,0014.03
2023-01-12 11:33:00,,0832.2,5.01,0.00,22.1,21.6,00.0,30.8,24.0,17.4,-001.1,0023.13,0014.44,0014.12
2023-01-12 11:34:00,,0832.2,5.00,0.00,22.1,21.3,00.0,30.8,23.9,17.4,-001.0,0023.45,0014.52,0014.22
2023-01-12 11:35:00,,0832.2,5.00,0.00,22.1,21.0,00.0,30.9,23.8,17.3,-000.9,0023.81,0014.58,0014.26
2023-01-12 11:36:00,,0832.2,5.00,0.00,22.1,20.8,00.0,30.9,23.8,17.4,-000.9,0024.15,0014.68,0014.35
2023-01-12 11:37:00,,0832.3,4.99,0.00,22.1,20.5,00.0,30.9,23.7,17.4,-000.8,0024.63,0014.76,0014.43
2023-01-12 11:38:00,,0832.3,5.00,0.00,22.0,20.4,00.0,30.9,23.6,17.4,-000.8,0024.53,0014.84,0014.49
2023-01-12 11:39:00,,0832.3,5.00,0.00,22.0,20.2,00.0,30.9,23.6,17.5,-000.8,0024.53,0014.86,0014.52
2023-01-12 11:40:00,,0832.3,5.01,0.00,21.9,20.0,00.0,30.9,23.5,17.5,-000.8,0024.55,0014.88,0014.52
2023-01-12 11:41:00,,0832.3,5.00,0.00,21.9,19.9,00.0,30.9,23.4,17.6,-000.7,0024.47,0014.87,0014.51
2023-01-12 11:42:00,,0832.3,5.02,0.00,21.8,19.8,00.0,30.8,23.3,17.6,-000.8,0023.87,0014.85,0014.52
2023-01-12 11:43:00,,0832.2,5.01,0.00,21.8,19.7,00.0,30.8,23.3,17.6,-001.0,0023.76,0014.78,0014.46
2023-01-12 11:44:00,,0832.3,4.99,0.00,21.7,19.6,00.0,30.8,23.2,17.7,-001.2,0023.72,0014.70,0014.36
2023-01-12 11:45:00,,0832.2,4.99,0.00,21.7,19.6,00.0,30.8,23.2,17.6,-001.4,0023.44,0014.59,0014.23
2023-01-12 11:46:00,,0832.2,5.01,0.00,21.7,19.6,00.0,30.7,23.2,17.6,-001.5,0022.82,0014.42,0014.09
2023-01-12 11:47:00,,0832.2,5.02,0.00,21.7,20.1,00.0,30.7,23.3,17.6,-001.6,0022.38,0014.23,0013.92
2023-01-12 11:48:00,,0832.3,4.99,0.00,21.8,21.4,00.0,30.6,23.6,17.6,-001.6,0021.34,0014.06,0013.76
2023-01-12 11:49:00,,0832.3,5.01,0.00,21.9,22.5,00.0,30.7,23.9,17.4,-001.7,0021.16,0013.90,0013.61
2023-01-12 11:50:00,,0832.3,4.99,0.00,22.0,22.4,00.0,30.7,23.9,17.2,-001.7,0020.96,0013.74,0013.45
2023-01-12 11:51:00,,0832.3,4.99,0.00,22.0,21.9,00.0,30.8,23.9,17.1,-001.8,0020.92,0013.59,0013.32
2023-01-12 11:52:00,,0832.4,5.00,0.00,22.0,21.4,00.0,30.8,23.8,17.0,-001.8,0021.34,0013.50,0013.21
2023-01-12 11:53:00,,0832.4,5.01,0.00,22.0,20.9,00.0,30.8,23.7,17.1,-001.8,0021.29,0013.44,0013.12
2023-01-12 11:54:00,,0832.3,5.00,0.00,22.0,20.6,00.0,30.8,23.6,17.1,-001.7,0021.06,0013.39,0013.08
2023-01-12 11:55:00,,0832.3,4.99,0.00,21.9,20.4,00.0,30.8,23.6,17.2,-001.7,0021.26,0013.35,0013.03
2023-01-12 11:56:00,,0832.2,4.99,0.00,21.9,20.2,00.0,30.8,23.5,17.1,-001.7,0021.43,0013.37,0013.05
2023-01-12 11:57:00,,0832.2,5.00,0.00,21.9,20.1,00.0,30.8,23.5,17.2,-001.6,0021.45,0013.36,0013.05
2023-01-12 11:58:00,,0832.2,5.00,0.00,21.8,19.9,00.0,30.8,23.4,17.2,-001.6,0021.41,0013.34,0013.03
2023-01-12 11:59:00,,0832.3,5.01,0.00,21.8,19.8,00.0,30.8,23.3,17.3,-001.6,0021.44,0013.35,0013.01
